Vertical_Velocity
0 4 -26 -1 -3 -2 -9 5 3 -13 -4 29 -14 -1 -14 2 19 -33 -37 -5 0 18 -4 -6 -6 -0 -3 -0 -6 -2 -3 2 -3 -1 -3 -3 -2 -2 -2 -3 0 0 1 -1
10 -33 7 3 -2 0 -2 4 -0 -15 4 60 -33 5 58 11 -21 -8 22 -46 18 10 6 -0 1 -3 -2 3 1 -0 -4 -2 -1 -1 1 0 1 2 -2 -2 0 4 1 -1
-13 -9 -0 3 -3 4 -9 -1 -4 1 11 20 13 14 17 25 19 26 -4 -24 24 -1 -2 -4 2 -4 -1 -1 0 -2 -3 -3 -0 1 -2 -2 -2 -4 -3 -4 -5 -1 0 0
-4 1 7 -4 0 5 8 -6 -3 6 21 9 -37 -8 9 37 5 17 5 -42 -5 -8 21 -3 3 -8 -9 -1 6 2 0 -2 -1 -2 -3 -3 1 1 3 2 -2 -3 -2 -4
-40 -7 5 8 -26 4 -19 -4 -11 6 9 34 9 29 -36 19 18 -5 -12 -9 -15 3 5 -16 6 -6 -2 -3 -0 6 3 -1 -1 -2 -3 -1 -2 1 -0 -1 -1 1 0 -0
-21 20 2 -13 -0 -6 2 7 8 13 8 17 -16 14 -23 -9 -18 8 9 5 7 -20 -6 -4 1 16 -4 -5 -3 2 -0 -1 -2 -4 -2 -2 -0 0 -1 -1 0 -0 2 0
20 -25 8 11 24 13 14 16 2 10 18 -13 -1 25 -26 -4 9 9 2 5 -22 -11 7 -22 -5 3 -3 -8 -4 -4 -2 -6 -4 -2 -4 -2 -1 -1 -0 -1 -1 -1 1 2
2 11 3 -4 -7 -14 -29 3 -8 -7 -1 -9 -2 -9 -53 -12 33 47 11 -9 -1 4 0 -26 -5 2 -1 -6 0 -0 -2 -2 -5 -1 -0 -0 0 -2 -1 -2 -1 -1 1 2
11 -21 16 -3 -3 23 -9 6 -12 10 -1 9 -1 -25 -18 -18 -15 8 55 42 -8 2 -9 -19 3 -2 7 -7 -2 -3 -2 0 -2 -0 1 -3 -2 -3 -1 1 1 -0 -2 0
-54 16 -10 -2 15 2 22 -21 16 9 1 1 -5 -4 -50 -9 -23 3 2 -3 26 12 0 -4 1 -7 2 1 -1 2 -0 0 6 2 -1 -2 1 2 2 1 -0 -1 -1 -2
0 26 -77 66 -18 -19 12 23 6 8 9 -6 -2 -26 -8 -12 -5 -15 -10 19 10 8 -7 -6 -4 -1 4 -4 -5 -1 -3 -6 -5 -3 1 1 -2 -2 -1 0 -1 -2 0 -2
9 3 -4 -48 22 -10 10 -14 4 8 -10 -2 1 -42 -21 26 4 -1 -10 -10 19 13 2 -8 -3 -2 -5 -8 -6 -9 -4 -3 -1 0 -1 -2 0 -2 -3 -2 0 -2 -3 -1
-3 14 -0 6 4 3 17 -12 5 10 -1 -14 8 -31 -20 -6 1 -10 -6 -3 28 5 10 -2 7 -1 -5 -5 -9 -2 -6 1 2 -3 -3 -2 -2 -4 -2 -1 -2 -3 -2 0
15 2 -4 -2 -30 1 21 15 -5 4 8 -19 -25 -4 -12 -0 5 11 12 -2 -0 21 7 -0 3 -1 -6 -7 -5 -4 0 -3 1 -2 -3 -3 -2 -0 -1 0 -2 -3 -0 -1
18 -4 7 3 2 10 10 -2 -1 -6 -7 4 -31 6 -14 4 9 5 12 10 -13 25 17 -4 -6 -2 -6 -3 -4 -3 2 2 1 0 -4 -0 3 2 -1 -3 -1 -1 -4 -2
8 -5 7 -4 -1 10 -1 21 -5 -6 -8 -2 8 -9 12 8 -16 -4 -2 -1 10 22 28 16 17 4 -1 -6 -4 -2 1 -1 -1 -6 4 4 -1 -0 1 0 -1 -3 -1 -2
10 12 -6 -3 6 -0 -0 -25 36 -0 2 -14 -12 11 -0 12 8 -8 -14 5 8 4 10 22 18 14 11 -8 -3 -5 -10 2 -4 1 3 2 0 -1 -2 2 -3 -3 -3 1
-2 7 8 -2 1 -3 -17 18 -3 -3 -6 14 5 19 -11 -7 44 56 38 -2 4 5 1 4 -4 6 12 9 12 2 2 -12 -5 -4 1 1 1 1 2 -3 -1 1 1 -2
3 9 -1 4 -1 5 3 8 10 43 7 10 11 34 37 16 0 4 10 7 1 -3 -4 0 2 5 1 2 -12 -8 5 -1 -5 -10 -7 -5 -1 1 0 3 4 6 -2 -2
-7 4 16 -0 2 1 30 7 -1 23 4 14 17 24 41 21 -3 0 8 4 1 -1 -2 -4 -3 -3 2 5 4 7 10 9 -1 -6 0 6 2 -0 -3 3 3 8 2 4
-8 -28 7 6 5 5 -5 -2 5 -6 21 4 11 20 0 -1 3 1 -0 2 -3 -3 -7 -7 -5 -4 -8 4 6 5 -2 0 2 11 6 2 -1 -1 4 2 -2 2 3 4
29 7 5 -2 3 -9 3 8 -32 25 18 4 11 8 -0 1 4 1 1 -2 -2 -1 -6 -4 -5 -2 0 -7 -1 4 2 2 -2 -1 -0 -2 4 2 2 1 1 -1 -1 2
-12 20 -4 16 9 26 11 -19 5 22 9 2 2 11 5 5 2 -1 0 -2 3 2 -4 -6 -5 -7 -2 3 -2 -1 8 5 1 -6 -2 6 7 5 5 2 -1 -2 -2 -2
7 13 11 -9 6 5 -2 -28 1 9 -10 6 -1 4 5 5 4 0 -5 -3 -2 2 -0 0 -4 -5 -2 0 -1 -12 -5 1 4 2 0 -8 -8 1 6 2 3 2 -1 -1
8 -3 -11 -14 10 -22 -13 -3 -13 -1 2 -9 -3 5 7 2 3 2 -2 -1 2 4 6 3 -6 -3 -4 -2 -4 -0 1 -0 -3 -5 -4 -1 -2 -0 3 2 -2 -0 1 -1
1 -2 -8 -38 -2 -1 -13 -7 -1 0 5 3 0 -2 -5 6 9 2 6 4 1 9 3 -6 -3 -3 -7 -3 0 1 1 -0 -1 2 2 -0 2 2 6 3 -2 1 -2 3
Height
3097 3101 3093 3099 3108 3117 3122 3123 3125 3126 3130 3132 3134 3137 3135 3140 3144 3145 3154 3161 3162 3161 3161 3165 3169 3172 3173 3177 3180 3184 3189 3195 3198 3203 3206 3211 3214 3217 3219 3220 3222 3224 3225 3225
3095 3084 3092 3104 3109 3113 3116 3116 3120 3122 3124 3128 3134 3133 3136 3132 3132 3138 3148 3157 3165 3167 3163 3164 3167 3170 3171 3174 3178 3182 3186 3192 3196 3200 3205 3209 3213 3216 3218 3219 3220 3222 3224 3225
3078 3077 3093 3099 3103 3108 3109 3110 3113 3116 3119 3122 3125 3128 3133 3133 3133 3138 3139 3145 3158 3159 3159 3161 3164 3167 3169 3171 3175 3179 3183 3188 3194 3198 3202 3205 3209 3212 3215 3217 3219 3221 3223 3224
3075 3083 3086 3091 3095 3101 3102 3105 3109 3110 3116 3114 3123 3123 3125 3129 3131 3133 3136 3143 3144 3155 3158 3159 3161 3163 3165 3168 3173 3177 3181 3185 3190 3195 3198 3202 3206 3210 3213 3216 3218 3219 3220 3222
3063 3073 3078 3083 3084 3094 3098 3106 3106 3106 3111 3115 3114 3118 3114 3122 3124 3123 3127 3132 3138 3148 3154 3154 3156 3160 3162 3165 3168 3174 3178 3181 3186 3190 3195 3199 3203 3206 3209 3212 3215 3217 3218 3220
3066 3073 3075 3075 3084 3091 3099 3103 3105 3104 3107 3105 3108 3111 3112 3113 3116 3119 3122 3129 3133 3141 3146 3150 3153 3158 3159 3161 3163 3168 3173 3177 3181 3186 3191 3195 3199 3203 3205 3209 3212 3214 3217 3218
3064 3062 3068 3073 3079 3085 3090 3095 3097 3099 3095 3096 3101 3103 3106 3109 3114 3114 3115 3119 3126 3129 3137 3140 3148 3151 3155 3156 3159 3163 3167 3172 3177 3182 3186 3191 3196 3199 3203 3206 3209 3211 3214 3217
3051 3051 3053 3063 3066 3075 3078 3081 3082 3089 3088 3090 3097 3092 3094 3102 3107 3114 3113 3112 3118 3125 3130 3134 3140 3147 3151 3153 3156 3159 3163 3168 3173 3178 3183 3187 3191 3195 3199 3203 3206 3209 3212 3214
3046 3039 3052 3055 3062 3068 3071 3071 3083 3084 3086 3088 3087 3091 3094 3097 3097 3105 3111 3112 3112 3119 3123 3127 3136 3143 3147 3150 3152 3155 3159 3163 3168 3175 3180 3184 3188 3192 3195 3199 3202 3205 3207 3210
3036 3045 3045 3050 3059 3060 3061 3073 3078 3078 3084 3088 3085 3085 3082 3088 3089 3094 3102 3108 3108 3110 3114 3123 3133 3139 3144 3147 3150 3152 3155 3160 3165 3171 3176 3181 3185 3188 3192 3195 3198 3202 3205 3207
3029 3033 3028 3043 3043 3043 3054 3058 3066 3074 3076 3079 3085 3076 3076 3079 3082 3085 3092 3100 3106 3108 3112 3118 3127 3135 3140 3144 3147 3150 3152 3155 3160 3166 3171 3176 3180 3184 3187 3190 3194 3198 3201 3203
3027 3021 3021 3023 3030 3042 3048 3052 3059 3061 3066 3070 3074 3064 3069 3070 3069 3078 3085 3093 3099 3103 3107 3113 3122 3130 3136 3140 3144 3148 3151 3153 3156 3162 3167 3172 3176 3180 3182 3186 3190 3193 3197 3200
3022 3018 3016 3017 3027 3030 3036 3042 3051 3059 3066 3066 3070 3062 3069 3065 3059 3069 3078 3088 3095 3100 3105 3110 3118 3125 3132 3137 3141 3144 3148 3152 3156 3159 3163 3167 3171 3174 3178 3182 3186 3189 3192 3195
3022 3012 3013 3011 3014 3025 3028 3034 3044 3053 3056 3062 3059 3066 3069 3062 3057 3066 3077 3085 3092 3098 3102 3108 3115 3121 3128 3133 3138 3141 3145 3149 3154 3157 3160 3163 3167 3171 3175 3179 3181 3184 3187 3190
3016 3005 3007 3005 3009 3016 3023 3029 3037 3041 3051 3054 3058 3065 3067 3066 3063 3070 3077 3084 3088 3096 3100 3104 3111 3116 3122 3128 3134 3138 3141 3145 3149 3154 3157 3160 3165 3169 3172 3175 3178 3181 3183 3186
3005 3005 2999 2998 3005 3013 3018 3020 3027 3038 3045 3053 3054 3059 3065 3067 3068 3071 3076 3082 3086 3092 3098 3102 3106 3111 3116 3122 3129 3134 3138 3142 3145 3149 3153 3157 3161 3164 3168 3172 3174 3177 3180 3182
3007 3007 3001 2998 3004 3011 3016 3016 3025 3032 3040 3047 3049 3053 3062 3065 3065 3069 3075 3079 3083 3087 3094 3099 3105 3110 3113 3116 3123 3129 3134 3139 3142 3145 3149 3152 3155 3158 3162 3167 3169 3172 3175 3177
3006 3007 3007 3003 3004 3012 3011 3017 3022 3027 3037 3045 3047 3053 3055 3063 3066 3068 3070 3075 3080 3082 3088 3093 3098 3104 3109 3114 3119 3124 3129 3133 3137 3141 3144 3147 3150 3153 3157 3160 3162 3166 3169 3172
3004 3007 3009 3007 3006 3010 3012 3016 3019 3026 3029 3033 3036 3046 3052 3053 3059 3062 3065 3067 3072 3078 3082 3087 3092 3098 3104 3109 3114 3120 3125 3128 3131 3135 3139 3142 3145 3148 3151 3153 3156 3159 3162 3164
3005 3008 3013 3009 3008 3005 3010 3006 3008 3015 3024 3029 3033 3038 3045 3047 3052 3058 3061 3064 3067 3071 3077 3083 3090 3096 3101 3105 3110 3115 3119 3123 3125 3129 3132 3136 3139 3143 3145 3147 3150 3152 3154 3156
3007 3008 3011 3011 3012 3010 3008 3008 3008 3013 3041 3032 3031 3029 3033 3040 3044 3048 3054 3059 3064 3069 3076 3082 3088 3092 3096 3102 3105 3109 3113 3116 3121 3125 3129 3131 3134 3136 3139 3141 3143 3144 3146 3148
3007 3010 3013 3014 3014 3017 3015 3017 3017 3031 3032 3032 3030 3030 3034 3034 3036 3040 3045 3051 3058 3067 3073 3079 3084 3089 3093 3096 3100 3104 3107 3111 3114 3116 3119 3124 3127 3130 3131 3133 3135 3136 3138 3139
3016 3020 3017 3020 3020 3023 3020 3019 3022 3025 3027 3027 3029 3031 3033 3033 3036 3039 3043 3049 3058 3065 3070 3075 3079 3083 3088 3091 3093 3097 3101 3104 3106 3108 3113 3116 3120 3123 3124 3125 3126 3127 3128 3130
3017 3017 3015 3013 3014 3017 3017 3012 3017 3020 3020 3026 3028 3028 3029 3031 3035 3039 3043 3049 3056 3061 3065 3069 3072 3077 3081 3084 3086 3090 3093 3096 3098 3101 3104 3107 3111 3114 3116 3117 3118 3118 3118 3120
3021 3015 3009 3005 3009 3008 3012 3014 3014 3015 3018 3018 3020 3024 3028 3032 3033 3037 3042 3047 3053 3058 3060 3062 3066 3069 3071 3073 3076 3080 3084 3088 3091 3093 3096 3098 3102 3105 3108 3108 3107 3109 3110 3110
3017 3014 3010 2998 3003 3002 3006 3010 3011 3011 3012 3016 3018 3017 3017 3022 3029 3032 3037 3043 3048 3053 3055 3057 3061 3063 3065 3068 3069 3072 3076 3079 3082 3085 3086 3089 3092 3095 3097 3098 3099 3099 3100 3101